| time (UTC) | temp F | wind direction | speed MPH | gust MPH | rain 1hr in | rain 24hr in | rain mn in | humidity % | barometer mb |
| 20260502151807 | 64 | 88 | 0.0 | 6.0 | 0.00 | 0.01 | 0.01 | 60 | 1016.1 |
| 20260502151304 | 64 | 207 | 0.0 | 3.0 | 0.00 | 0.01 | 0.01 | 62 | 1016.1 |
| 20260502150806 | 64 | 159 | 1.0 | 6.0 | 0.00 | 0.01 | 0.01 | 63 | 1016.1 |
| 20260502130635 | 64 | 269 | 2.0 | 7.0 | 0.00 | 0.01 | 0.01 | 70 | 1016.9 |
| 20260502130133 | 64 | 164 | 2.0 | 7.0 | 0.00 | 0.01 | 0.01 | 69 | 1016.9 |
| 20260502123604 | 64 | 219 | 3.0 | 7.0 | 0.00 | 0.01 | 0.01 | 77 | 1017.1 |
| 20260502123103 | 64 | 191 | 3.0 | 7.0 | 0.00 | 0.01 | 0.01 | 77 | 1017.2 |
| 20260502122535 | 64 | 174 | 3.0 | 9.0 | 0.00 | 0.01 | 0.01 | 77 | 1017.3 |
| 20260502122038 | 64 | 356 | 3.0 | 9.0 | 0.00 | 0.01 | 0.01 | 77 | 1017.3 |
| 20260502121535 | 64 | 126 | 2.0 | 11.0 | 0.00 | 0.01 | 0.01 | 76 | 1017.3 |
| 20260502120531 | 65 | 34 | 2.0 | 11.0 | 0.00 | 0.01 | 0.01 | 75 | 1017.4 |
| 20260502115522 | 65 | 190 | 2.0 | 12.0 | 0.00 | 0.01 | 0.01 | 75 | 1017.3 |
| 20260502115024 | 65 | 46 | 1.0 | 6.0 | 0.00 | 0.01 | 0.01 | 78 | 1017.4 |
| 20260502113512 | 65 | 158 | 1.0 | 8.0 | 0.00 | 0.01 | 0.01 | 76 | 1017.3 |
| 20260502113023 | 65 | 102 | 1.0 | 8.0 | 0.00 | 0.01 | 0.01 | 76 | 1017.4 |
| 20260502112519 | 65 | 186 | 1.0 | 6.0 | 0.00 | 0.01 | 0.01 | 78 | 1017.4 |
| 20260502112026 | 65 | 194 | 2.0 | 9.0 | 0.00 | 0.01 | 0.01 | 77 | 1017.4 |
| 20260502111525 | 65 | 134 | 2.0 | 9.0 | 0.00 | 0.01 | 0.01 | 77 | 1017.5 |
| 20260502111034 | 64 | 43 | 1.0 | 7.0 | 0.00 | 0.01 | 0.01 | 80 | 1017.4 |
| 20260502110527 | 65 | 25 | 2.0 | 7.0 | 0.00 | 0.01 | 0.01 | 79 | 1017.6 |
| 20260502110025 | 65 | 145 | 2.0 | 7.0 | 0.00 | 0.01 | 0.01 | 79 | 1017.6 |
| 20260502105510 | 65 | 237 | 2.0 | 7.0 | 0.00 | 0.01 | 0.01 | 81 | 1017.6 |
| 20260502105018 | 64 | 121 | 2.0 | 6.0 | 0.00 | 0.01 | 0.01 | 82 | 1017.6 |
| 20260502104021 | 64 | 180 | 1.0 | 7.0 | 0.00 | 0.01 | 0.01 | 82 | 1017.6 |
| 20260502103517 | 64 | 205 | 1.0 | 7.0 | 0.00 | 0.01 | 0.01 | 83 | 1017.6 |
| 20260502103026 | 64 | 150 | 1.0 | 6.0 | 0.00 | 0.01 | 0.01 | 83 | 1017.7 |
| 20260502102510 | 64 | 203 | 2.0 | 5.0 | 0.00 | 0.01 | 0.01 | 83 | 1017.6 |
| 20260502102023 | 64 | 176 | 2.0 | 10.0 | 0.00 | 0.01 | 0.01 | 82 | 1017.6 |
| 20260502101520 | 64 | 160 | 2.0 | 10.0 | 0.00 | 0.01 | 0.01 | 82 | 1017.6 |
| 20260502101032 | 64 | 182 | 2.0 | 8.0 | 0.00 | 0.01 | 0.01 | 83 | 1017.6 |
| 20260502091407 | 60 | 38 | 1.0 | 8.0 | 0.00 | 0.01 | 0.00 | 89 | 1017.6 |
| 20260502090908 | 60 | 34 | 1.0 | 5.0 | 0.00 | 0.01 | 0.00 | 89 | 1017.6 |
| 20260502090406 | 59 | 127 | 0.0 | 3.0 | 0.01 | 0.01 | 0.01 | 89 | 1017.5 |
| 20260502071208 | 60 | 40 | 0.0 | 3.0 | 0.00 | 0.00 | 0.00 | 81 | 1017.7 |
| 20260502070722 | 60 | 75 | 0.0 | 3.0 | 0.00 | 0.00 | 0.00 | 81 | 1017.6 |
| 20260502070208 | 60 | 46 | 0.0 | 2.0 | 0.00 | 0.00 | 0.00 | 80 | 1017.6 |
| 20260502065642 | 60 | 46 | 0.0 | 2.0 | 0.00 | 0.00 | 0.00 | 80 | 1017.6 |
| 20260502065134 | 59 | 65 | 0.0 | 2.0 | 0.00 | 0.00 | 0.00 | 80 | 1017.6 |
| 20260502064634 | 59 | 104 | 0.0 | 2.0 | 0.00 | 0.00 | 0.00 | 79 | 1017.6 |
| 20260502064105 | 59 | 82 | 0.0 | 4.0 | 0.00 | 0.00 | 0.00 | 79 | 1017.6 |
| 20260502063610 | 59 | 32 | 0.0 | 1.0 | 0.00 | 0.00 | 0.00 | 78 | 1017.6 |
| 20260502062540 | 59 | 63 | 0.0 | 1.0 | 0.00 | 0.00 | 0.00 | 78 | 1017.6 |
| 20260502062037 | 58 | 135 | 0.0 | 1.0 | 0.00 | 0.00 | 0.00 | 78 | 1017.6 |
| 20260502061535 | 58 | 143 | 0.0 | 1.0 | 0.00 | 0.00 | 0.00 | 78 | 1017.6 |
| 20260502061025 | 58 | 146 | 0.0 | 1.0 | 0.00 | 0.00 | 0.00 | 77 | 1017.6 |
| 20260502060521 | 57 | 91 | 0.0 | 1.0 | 0.00 | 0.00 | 0.00 | 75 | 1017.7 |
| 20260502055519 | 57 | 177 | 0.0 | 0.0 | 0.00 | 0.00 | 0.00 | 72 | 1017.7 |
| 20260502055022 | 56 | 67 | 0.0 | 0.0 | 0.00 | 0.00 | 0.00 | 71 | 1017.4 |
| 20260502054025 | 56 | 68 | 0.0 | 0.0 | 0.00 | 0.00 | 0.00 | 71 | 1017.4 |
| 20260502053523 | 55 | 84 | 0.0 | 0.0 | 0.00 | 0.00 | 0.00 | 71 | 1017.4 |
| 20260502052524 | 55 | 84 | 0.0 | 0.0 | 0.00 | 0.00 | 0.00 | 71 | 1017.4 |
| 20260502052023 | 54 | 68 | 0.0 | 0.0 | 0.00 | 0.00 | 0.00 | 71 | 1017.4 |
| 20260502051525 | 54 | 68 | 0.0 | 0.0 | 0.00 | 0.00 | 0.00 | 71 | 1017.4 |
| 20260502050523 | 53 | 83 | 0.0 | 0.0 | 0.00 | 0.00 | 0.00 | 70 | 1017.5 |
| 20260502045950 | 53 | 48 | 0.0 | 0.0 | 0.00 | 0.00 | 0.00 | 70 | 1017.4 |
| 20260502045439 | 53 | 84 | 0.0 | 0.0 | 0.00 | 0.00 | 0.00 | 71 | 1017.5 |
| 20260502044937 | 53 | 79 | 0.0 | 0.0 | 0.00 | 0.00 | 0.00 | 72 | 1017.5 |
| 20260502044410 | 53 | 79 | 0.0 | 0.0 | 0.00 | 0.00 | 0.00 | 72 | 1017.5 |
| 20260502043907 | 52 | 127 | 0.0 | 0.0 | 0.00 | 0.00 | 0.00 | 72 | 1017.4 |
| 20260502043409 | 53 | 75 | 0.0 | 0.0 | 0.00 | 0.00 | 0.00 | 74 | 1017.4 |
| 20260502042406 | 53 | 74 | 0.0 | 0.0 | 0.00 | 0.00 | 0.00 | 73 | 1017.5 |
| 20260502040847 | 53 | 74 | 0.0 | 0.0 | 0.00 | 0.00 | 0.00 | 70 | 1017.5 |
| 20260502040336 | 53 | 75 | 0.0 | 0.0 | 0.00 | 0.00 | 0.00 | 70 | 1017.6 |
| 20260502035836 | 53 | 75 | 0.0 | 0.0 | 0.00 | 0.00 | 0.00 | 69 | 1017.6 |
| 20260502035338 | 53 | 75 | 0.0 | 0.0 | 0.00 | 0.00 | 0.00 | 69 | 1017.6 |
| 20260502034335 | 53 | 52 | 0.0 | 1.0 | 0.00 | 0.00 | 0.00 | 68 | 1017.7 |
| 20260502032828 | 54 | 47 | 0.0 | 0.0 | 0.00 | 0.00 | 0.00 | 68 | 1017.8 |
| 20260502032326 | 54 | 70 | 0.0 | 0.0 | 0.00 | 0.00 | 0.00 | 69 | 1017.9 |
| 20260502031808 | 53 | 44 | 0.0 | 0.0 | 0.00 | 0.00 | 0.00 | 68 | 1017.8 |
| 20260502031307 | 53 | 44 | 0.0 | 0.0 | 0.00 | 0.00 | 0.00 | 69 | 1017.7 |
| 20260502030307 | 53 | 44 | 0.0 | 0.0 | 0.00 | 0.00 | 0.00 | 70 | 1017.8 |
| 20260502025737 | 53 | 44 | 0.0 | 0.0 | 0.00 | 0.00 | 0.00 | 70 | 1017.8 |
| 20260502025235 | 53 | 44 | 0.0 | 0.0 | 0.00 | 0.00 | 0.00 | 70 | 1018.0 |
| 20260502024733 | 53 | 44 | 0.0 | 0.0 | 0.00 | 0.00 | 0.00 | 72 | 1018.0 |
| 20260502024207 | 53 | 44 | 0.0 | 0.0 | 0.00 | 0.00 | 0.00 | 71 | 1018.0 |
| 20260502023707 | 53 | 44 | 0.0 | 0.0 | 0.00 | 0.00 | 0.00 | 71 | 1018.0 |
| 20260502023205 | 53 | 44 | 0.0 | 0.0 | 0.00 | 0.00 | 0.00 | 70 | 1018.1 |
| 20260502022655 | 53 | 44 | 0.0 | 0.0 | 0.00 | 0.00 | 0.00 | 71 | 1018.1 |
| 20260502021635 | 53 | 44 | 0.0 | 0.0 | 0.00 | 0.00 | 0.00 | 71 | 1018.1 |
| 20260502021133 | 53 | 44 | 0.0 | 0.0 | 0.00 | 0.00 | 0.00 | 71 | 1018.1 |
| 20260502020628 | 53 | 44 | 0.0 | 0.0 | 0.00 | 0.00 | 0.00 | 72 | 1018.2 |
| 20260502020119 | 53 | 44 | 0.0 | 0.0 | 0.00 | 0.00 | 0.00 | 71 | 1018.3 |
| 20260502014607 | 54 | 44 | 0.0 | 0.0 | 0.00 | 0.00 | 0.00 | 72 | 1018.3 |
| 20260502014040 | 54 | 44 | 0.0 | 0.0 | 0.00 | 0.00 | 0.00 | 70 | 1018.3 |
| 20260502013534 | 55 | 44 | 0.0 | 0.0 | 0.00 | 0.00 | 0.00 | 68 | 1018.3 |
| 20260502013034 | 55 | 44 | 0.0 | 0.0 | 0.00 | 0.00 | 0.00 | 68 | 1018.4 |
| 20260502012537 | 55 | 44 | 0.0 | 0.0 | 0.00 | 0.00 | 0.00 | 66 | 1018.5 |
| 20260502012026 | 55 | 33 | 0.0 | 0.0 | 0.00 | 0.00 | 0.00 | 65 | 1018.5 |
| 20260502011526 | 55 | 32 | 0.0 | 0.0 | 0.00 | 0.00 | 0.00 | 63 | 1018.6 |
| 20260502011028 | 56 | 32 | 0.0 | 1.0 | 0.00 | 0.00 | 0.00 | 63 | 1018.6 |
| 20260502010519 | 56 | 32 | 0.0 | 1.0 | 0.00 | 0.00 | 0.00 | 63 | 1018.7 |
| 20260502005951 | 56 | 32 | 0.0 | 1.0 | 0.00 | 0.00 | 0.00 | 63 | 1018.7 |
| 20260502005434 | 56 | 32 | 0.0 | 1.0 | 0.00 | 0.00 | 0.00 | 61 | 1018.8 |
| 20260502004937 | 56 | 32 | 0.0 | 0.0 | 0.00 | 0.00 | 0.00 | 61 | 1018.9 |
| 20260502004433 | 56 | 32 | 0.0 | 0.0 | 0.00 | 0.00 | 0.00 | 61 | 1018.9 |
| 20260502003435 | 57 | 32 | 0.0 | 0.0 | 0.00 | 0.00 | 0.00 | 59 | 1019.0 |
| 20260502002935 | 57 | 32 | 0.0 | 0.0 | 0.00 | 0.00 | 0.00 | 59 | 1019.0 |
| 20260502002431 | 57 | 32 | 0.0 | 3.0 | 0.00 | 0.00 | 0.00 | 61 | 1019.0 |
| 20260502001931 | 58 | 32 | 0.0 | 1.0 | 0.00 | 0.00 | 0.00 | 57 | 1019.0 |
| 20260502001410 | 58 | 32 | 0.0 | 3.0 | 0.00 | 0.00 | 0.00 | 57 | 1019.1 |
| 20260502000906 | 58 | 30 | 0.0 | 3.0 | 0.00 | 0.00 | 0.00 | 57 | 1019.1 |
| 20260502000409 | 58 | 41 | 0.0 | 0.0 | 0.00 | 0.00 | 0.00 | 57 | 1019.2 |
| 20260501235903 | 58 | 41 | 0.0 | 0.0 | 0.00 | 0.00 | 0.00 | 57 | 1019.3 |
| 20260501235336 | 57 | 37 | 0.0 | 0.0 | 0.00 | 0.00 | 0.00 | 58 | 1019.3 |
| 20260501234833 | 57 | 44 | 0.0 | 0.0 | 0.00 | 0.00 | 0.00 | 59 | 1019.4 |
| 20260501234333 | 57 | 44 | 0.0 | 0.0 | 0.00 | 0.00 | 0.00 | 59 | 1019.4 |
| 20260501233833 | 57 | 44 | 0.0 | 0.0 | 0.00 | 0.00 | 0.00 | 59 | 1019.4 |
| 20260501233339 | 57 | 37 | 0.0 | 0.0 | 0.00 | 0.00 | 0.00 | 64 | 1019.4 |
| 20260501232813 | 57 | 37 | 0.0 | 0.0 | 0.00 | 0.00 | 0.00 | 63 | 1019.4 |
| 20260501232306 | 57 | 37 | 0.0 | 0.0 | 0.00 | 0.00 | 0.00 | 62 | 1019.5 |
| 20260501231813 | 57 | 36 | 0.0 | 0.0 | 0.00 | 0.00 | 0.00 | 60 | 1019.6 |
| 20260501231233 | 57 | 36 | 0.0 | 0.0 | 0.00 | 0.00 | 0.00 | 61 | 1019.6 |
| 20260501230741 | 56 | 36 | 0.0 | 0.0 | 0.00 | 0.00 | 0.00 | 63 | 1019.7 |
| 20260501230242 | 56 | 49 | 0.0 | 0.0 | 0.00 | 0.00 | 0.00 | 70 | 1019.7 |
| 20260501225736 | 56 | 49 | 0.0 | 0.0 | 0.00 | 0.00 | 0.00 | 68 | 1019.9 |
| 20260501225234 | 56 | 49 | 0.0 | 0.0 | 0.00 | 0.00 | 0.00 | 70 | 1019.9 |
| 20260501224737 | 56 | 49 | 0.0 | 0.0 | 0.00 | 0.00 | 0.00 | 67 | 1019.9 |
| 20260501224233 | 56 | 49 | 0.0 | 0.0 | 0.00 | 0.00 | 0.00 | 67 | 1019.8 |
| 20260501223234 | 56 | 49 | 0.0 | 0.0 | 0.00 | 0.00 | 0.00 | 68 | 1020.0 |
| 20260501222736 | 56 | 49 | 0.0 | 0.0 | 0.00 | 0.00 | 0.00 | 68 | 1020.0 |
| 20260501222229 | 56 | 49 | 0.0 | 0.0 | 0.00 | 0.00 | 0.00 | 69 | 1020.0 |
| 20260501221711 | 56 | 49 | 0.0 | 0.0 | 0.00 | 0.00 | 0.00 | 71 | 1020.0 |
| 20260501221206 | 55 | 49 | 0.0 | 0.0 | 0.00 | 0.00 | 0.00 | 72 | 1020.0 |
| 20260501220709 | 55 | 49 | 0.0 | 0.0 | 0.00 | 0.00 | 0.00 | 73 | 1020.1 |
| 20260501220207 | 56 | 49 | 0.0 | 0.0 | 0.00 | 0.00 | 0.00 | 73 | 1020.2 |
| 20260501215204 | 56 | 49 | 0.0 | 0.0 | 0.00 | 0.00 | 0.00 | 73 | 1020.2 |
| 20260501214135 | 56 | 49 | 0.0 | 0.0 | 0.00 | 0.00 | 0.00 | 72 | 1020.3 |
| 20260501213632 | 57 | 49 | 0.0 | 0.0 | 0.00 | 0.00 | 0.00 | 72 | 1020.3 |
| 20260501213135 | 57 | 49 | 0.0 | 0.0 | 0.00 | 0.00 | 0.00 | 72 | 1020.2 |
| 20260501212614 | 58 | 49 | 0.0 | 0.0 | 0.00 | 0.00 | 0.00 | 71 | 1020.3 |
| 20260501212106 | 58 | 49 | 0.0 | 0.0 | 0.00 | 0.00 | 0.00 | 71 | 1020.3 |
| 20260501211608 | 58 | 49 | 0.0 | 0.0 | 0.00 | 0.00 | 0.00 | 70 | 1020.3 |
| 20260501211108 | 58 | 49 | 0.0 | 0.0 | 0.00 | 0.00 | 0.00 | 69 | 1020.3 |
| 20260501210606 | 58 | 49 | 0.0 | 0.0 | 0.00 | 0.00 | 0.00 | 68 | 1020.4 |
| 20260501205534 | 59 | 49 | 0.0 | 0.0 | 0.00 | 0.00 | 0.00 | 65 | 1020.4 |
| 20260501205053 | 59 | 49 | 0.0 | 0.0 | 0.00 | 0.00 | 0.00 | 68 | 1020.6 |
| 20260501204536 | 60 | 49 | 0.0 | 0.0 | 0.00 | 0.00 | 0.00 | 68 | 1020.5 |
| 20260501204032 | 60 | 49 | 0.0 | 0.0 | 0.00 | 0.00 | 0.00 | 66 | 1020.5 |
| 20260501203526 | 60 | 49 | 0.0 | 0.0 | 0.00 | 0.00 | 0.00 | 65 | 1020.6 |
| 20260501203028 | 61 | 49 | 0.0 | 0.0 | 0.00 | 0.00 | 0.00 | 63 | 1020.5 |
| 20260501202520 | 61 | 49 | 0.0 | 0.0 | 0.00 | 0.00 | 0.00 | 62 | 1020.5 |
| 20260501202022 | 62 | 49 | 0.0 | 0.0 | 0.00 | 0.00 | 0.00 | 60 | 1020.6 |
| 20260501201504 | 62 | 49 | 0.0 | 0.0 | 0.00 | 0.00 | 0.00 | 60 | 1020.6 |
| 20260501200937 | 62 | 49 | 0.0 | 0.0 | 0.00 | 0.00 | 0.00 | 59 | 1020.6 |
| 20260501200434 | 63 | 49 | 0.0 | 0.0 | 0.00 | 0.00 | 0.00 | 53 | 1020.5 |
| 20260501195931 | 63 | 49 | 0.0 | 0.0 | 0.00 | 0.00 | 0.00 | 53 | 1020.5 |
| 20260501195422 | 63 | 49 | 0.0 | 0.0 | 0.00 | 0.00 | 0.00 | 52 | 1020.6 |
| 20260501194907 | 64 | 49 | 0.0 | 0.0 | 0.00 | 0.00 | 0.00 | 52 | 1020.5 |
| 20260501194407 | 64 | 49 | 0.0 | 0.0 | 0.00 | 0.00 | 0.00 | 52 | 1020.5 |
| 20260501193907 | 65 | 49 | 0.0 | 0.0 | 0.00 | 0.00 | 0.00 | 51 | 1020.5 |
| 20260501193409 | 66 | 47 | 0.0 | 0.0 | 0.00 | 0.00 | 0.00 | 49 | 1020.5 |
| 20260501192907 | 66 | 47 | 0.0 | 0.0 | 0.00 | 0.00 | 0.00 | 49 | 1020.5 |
| 20260501192407 | 67 | 46 | 0.0 | 0.0 | 0.00 | 0.00 | 0.00 | 48 | 1020.5 |
| 20260501191406 | 68 | 46 | 0.0 | 0.0 | 0.00 | 0.00 | 0.00 | 44 | 1020.5 |
| 20260501190904 | 68 | 46 | 0.0 | 0.0 | 0.00 | 0.00 | 0.00 | 43 | 1020.5 |
| 20260501190407 | 69 | 46 | 0.0 | 0.0 | 0.00 | 0.00 | 0.00 | 39 | 1020.5 |
| 20260501185833 | 69 | 46 | 0.0 | 0.0 | 0.00 | 0.00 | 0.00 | 39 | 1020.5 |
| 20260501185335 | 70 | 46 | 0.0 | 1.0 | 0.00 | 0.00 | 0.00 | 38 | 1020.5 |
| 20260501184309 | 70 | 45 | 0.0 | 1.0 | 0.00 | 0.00 | 0.00 | 37 | 1020.5 |
| 20260501183320 | 71 | 41 | 0.0 | 1.0 | 0.00 | 0.00 | 0.00 | 36 | 1020.5 |
| 20260501182811 | 71 | 41 | 0.0 | 1.0 | 0.00 | 0.00 | 0.00 | 36 | 1020.5 |
| 20260501182312 | 71 | 41 | 0.0 | 1.0 | 0.00 | 0.00 | 0.00 | 35 | 1020.6 |
| 20260501181823 | 72 | 32 | 0.0 | 2.0 | 0.00 | 0.00 | 0.00 | 34 | 1020.5 |
| 20260501181241 | 72 | 40 | 1.0 | 6.0 | 0.00 | 0.00 | 0.00 | 34 | 1020.5 |
| 20260501180738 | 72 | 25 | 1.0 | 6.0 | 0.00 | 0.00 | 0.00 | 33 | 1020.5 |
| 20260501180241 | 72 | 36 | 1.0 | 5.0 | 0.00 | 0.00 | 0.00 | 32 | 1020.5 |
| 20260501175723 | 73 | 19 | 0.0 | 5.0 | 0.00 | 0.00 | 0.00 | 32 | 1020.5 |
| 20260501175228 | 73 | 49 | 1.0 | 5.0 | 0.00 | 0.00 | 0.00 | 31 | 1020.5 |
| 20260501174715 | 73 | 37 | 1.0 | 4.0 | 0.00 | 0.00 | 0.00 | 31 | 1020.4 |
| 20260501173707 | 73 | 23 | 1.0 | 7.0 | 0.00 | 0.00 | 0.00 | 30 | 1020.5 |
| 20260501173208 | 74 | 43 | 2.0 | 7.0 | 0.00 | 0.00 | 0.00 | 30 | 1020.5 |
| 20260501172636 | 74 | 30 | 2.0 | 9.0 | 0.00 | 0.00 | 0.00 | 30 | 1020.5 |
| 20260501172136 | 74 | 33 | 2.0 | 9.0 | 0.00 | 0.00 | 0.00 | 29 | 1020.5 |
| 20260501171633 | 74 | 225 | 2.0 | 9.0 | 0.00 | 0.00 | 0.00 | 29 | 1020.6 |
| 20260501171136 | 74 | 228 | 2.0 | 11.0 | 0.00 | 0.00 | 0.00 | 30 | 1020.5 |
| 20260501170136 | 74 | 31 | 3.0 | 8.0 | 0.00 | 0.00 | 0.00 | 29 | 1020.7 |
| 20260501165112 | 74 | 15 | 4.0 | 14.0 | 0.00 | 0.00 | 0.00 | 29 | 1020.6 |
| 20260501164107 | 74 | 30 | 3.0 | 11.0 | 0.00 | 0.00 | 0.00 | 28 | 1020.8 |
| 20260501163607 | 74 | 18 | 3.0 | 10.0 | 0.00 | 0.00 | 0.00 | 28 | 1020.8 |
| 20260501163110 | 74 | 26 | 2.0 | 10.0 | 0.00 | 0.00 | 0.00 | 28 | 1020.9 |
| 20260501161608 | 74 | 44 | 3.0 | 9.0 | 0.00 | 0.00 | 0.00 | 28 | 1020.9 |
| 20260501161107 | 74 | 19 | 3.0 | 12.0 | 0.00 | 0.00 | 0.00 | 28 | 1021.0 |
| 20260501160609 | 74 | 347 | 3.0 | 12.0 | 0.00 | 0.00 | 0.00 | 28 | 1021.2 |
| 20260501160108 | 74 | 63 | 1.0 | 13.0 | 0.00 | 0.00 | 0.00 | 28 | 1021.0 |
| 20260501155605 | 74 | 68 | 1.0 | 13.0 | 0.00 | 0.00 | 0.00 | 29 | 1021.1 |
| 20260501154608 | 74 | 51 | 2.0 | 7.0 | 0.00 | 0.00 | 0.00 | 28 | 1021.1 |
| 20260501154104 | 74 | 79 | 3.0 | 9.0 | 0.00 | 0.00 | 0.00 | 28 | 1021.1 |
| 20260501153605 | 74 | 81 | 3.0 | 13.0 | 0.00 | 0.00 | 0.00 | 28 | 1021.2 |
| 20260501153108 | 74 | 71 | 3.0 | 16.0 | 0.00 | 0.00 | 0.00 | 28 | 1021.2 |